Weather reports worldwide

Advertisment
Leck, Germany (10022): temperature & dewpoint: 06.11.2019 17:00:00 - 12.11.2019 17:00:00 (CET)Leck, Germany (10022): temperature 5cm & temperature -5cm: 06.11.2019 17:00:00 - 12.11.2019 17:00:00 (CET)Leck, Germany (10022): temperature -20cm & temperature -100cm: 06.11.2019 17:00:00 - 12.11.2019 17:00:00 (CET)Leck, Germany (10022): wind speed & gusts: 06.11.2019 17:00:00 - 12.11.2019 17:00:00 (CET)Leck, Germany (10022): wind direction: 06.11.2019 17:00:00 - 12.11.2019 17:00:00 (CET)Leck, Germany (10022): reduced air pressure: 06.11.2019 17:00:00 - 12.11.2019 17:00:00 (CET)Leck, Germany (10022): visibility: 06.11.2019 17:00:00 - 12.11.2019 17:00:00 (CET)Leck, Germany (10022): sunshine duration: 06.11.2019 17:00:00 - 12.11.2019 17:00:00 (CET)Leck, Germany (10022): precipitation: 06.11.2019 17:00:00 - 12.11.2019 17:00:00 (CET)
Date & Time tt [°C] td [°C] tt 5cm [°C] tt -5cm [°C] tt -20cm [°C] tt -100cm [°C] ff [km/h] ff [kn] fx [km/h] fx [kn] dd ppp [hPa] vv [km] sd [min] rr [mm]
12.11.2019 17:00:00 6,0 2,5 5,2 5,0 6,3 9,7 18 10 34 19 SSE 999,6 34 0 0,0
12.11.2019 16:00:00 6,0 2,9 4,9 5,4 6,3 9,7 22 12 32 18 S 999,3 20 0 0,1
12.11.2019 15:00:00 5,9 3,1 4,8 5,7 6,3 9,7 22 12 42 23 S 999,1 13 0 0,0
12.11.2019 14:00:00 6,3 3,4 6,0 5,9 6,2 9,7 24 13 44 24 S 998,8 5 0 0,0
12.11.2019 13:00:00 6,2 3,8 5,7 5,7 6,2 9,7 26 14 42 23 S 998,6 4,7 0 0,0
12.11.2019 12:00:00 5,9 4,4 5,3 5,4 6,1 9,7 28 15 42 23 S 998,3 6 0 0,1
12.11.2019 11:00:00 5,2 3,8 4,7 5,2 6,1 9,7 29 15 47 25 S 998,3 8 0 0,1
12.11.2019 10:00:00 5,3 3,8 4,6 5,1 6,1 9,7 30 16 42 23 S 998,0 8 0 0,0
12.11.2019 09:00:00 5,4 3,9 4,6 5,0 6,0 9,7 25 14 43 23 S 997,9 8 0 0,1
12.11.2019 08:00:00 5,8 2,9 5,2 4,9 6,0 9,8 23 12 44 24 S 997,6 41 0 0,0
12.11.2019 07:00:00 5,7 3,4 5,2 5,0 6,0 9,8 29 16 44 24 S 997,3 20 0 0,0
12.11.2019 06:00:00 5,7 3,6 5,2 5,0 6,0 9,8 29 16 44 24 S 997,2 18 0 0,0
12.11.2019 05:00:00 5,9 3,7 5,4 4,8 5,9 9,8 27 15 46 25 S 997,3 14 0 0,0
12.11.2019 04:00:00 5,4 3,3 5,0 4,6 5,9 9,8 23 12 41 22 SSE 997,5 12 0 0,0
12.11.2019 03:00:00 5,2 3,0 4,4 4,3 5,9 9,8 26 14 41 22 S 997,7 13 0 0,0
12.11.2019 02:00:00 4,9 2,3 4,4 4,1 5,9 9,8 24 13 36 20 SSE 998,0 15 0 0,0
12.11.2019 01:00:00 4,4 2,0 4,0 3,8 6,0 9,8 22 12 38 21 SSE 998,2 13 0 0,0
12.11.2019 00:00:00 3,9 1,9 3,3 3,6 6,0 9,8 26 14 43 23 SSE 998,8 10 0 0,0
11.11.2019 23:00:00 3,9 1,5 3,2 3,7 6,1 9,8 28 15 43 23 SE 999,3 11 0 0,0
11.11.2019 22:00:00 3,8 1,3 3,4 3,8 6,2 9,8 27 14 39 21 SSE 999,8 13 0 0,0
11.11.2019 21:00:00 3,9 1,7 3,5 4,0 6,3 9,8 24 13 43 23 SE 1000,3 13 0 0,0
11.11.2019 20:00:00 4,1 1,9 3,8 4,3 6,4 9,8 26 14 46 25 SE 1000,7 13 0 0,0
11.11.2019 19:00:00 4,5 2,3 4,1 4,5 6,5 9,8 25 13 41 22 SE 1001,2 15 0 0,0
11.11.2019 18:00:00 4,5 2,3 4,1 4,7 6,6 9,8 21 11 36 19 SE 1001,8 14 0 0,0
11.11.2019 17:00:00 5,2 2,3 4,7 5,0 6,7 9,8 24 13 33 18 SE 1001,8 22 0 0,0
11.11.2019 16:00:00 5,1 2,4 4,4 5,6 6,8 9,8 18 10 29 16 SE 1002,6 21 0 0,0
11.11.2019 15:00:00 4,9 2,4 4,8 6,2 6,7 9,8 19 10 32 17 SE 1003,4 10 0 0,0
11.11.2019 14:00:00 5,5 2,4 5,9 7,3 6,6 9,8 18 10 35 19 SSE 1004,4 - 30 0,0
11.11.2019 13:00:00 5,5 2,6 6,9 6,9 6,4 9,8 18 10 37 20 SSE 1005,2 - 42 0,0
11.11.2019 12:00:00 5,0 1,9 6,3 6,6 6,3 9,8 22 12 32 18 SSE 1005,9 - 60 0,0
11.11.2019 11:00:00 4,1 1,5 5,0 5,3 6,2 9,8 17 9 26 14 SSE 1006,8 3,6 43 0,0
11.11.2019 10:00:00 3,7 1,6 3,5 4,6 6,3 9,9 17 9 32 18 SSE 1007,1 3,7 48 0,0
11.11.2019 09:00:00 2,9 1,4 2,0 3,5 6,5 9,9 14 8 25 14 SSE 1007,5 3,6 1 0,0
11.11.2019 08:00:00 3,8 2,4 2,7 4,2 6,6 9,9 17 9 28 15 S 1007,8 4,2 0 0,0
11.11.2019 07:00:00 4,7 3,3 3,6 5,1 6,7 9,9 19 10 29 15 S 1007,9 4,1 0 0,0
11.11.2019 06:00:00 6,3 4,5 5,4 6,0 6,7 9,9 21 11 32 17 S 1008,5 7 0 0,1
11.11.2019 05:00:00 7,3 5,5 6,4 6,0 6,6 9,9 19 10 34 18 SSW 1009,1 9 0 0,0
11.11.2019 04:00:00 7,1 5,3 6,1 5,7 6,6 9,9 17 9 48 26 SSW 1009,6 30 0 1,5
11.11.2019 03:00:00 6,9 4,7 5,6 5,5 6,6 9,9 15 8 31 17 SSW 1009,9 46 0 0,0
11.11.2019 02:00:00 7,3 5,8 6,2 5,6 6,6 9,9 19 10 32 18 SSW 1010,1 13 0 0,0
11.11.2019 01:00:00 7,5 4,1 6,1 5,6 6,6 9,9 17 9 36 19 SW 1010,5 70 0 0,0
11.11.2019 00:00:00 7,5 6,2 6,1 5,1 6,7 9,9 19 10 27 15 SSW 1010,6 13 0 0,0
10.11.2019 23:00:00 6,5 4,9 4,9 5,0 6,8 9,9 19 10 30 16 S 1010,6 25 0 0,0
10.11.2019 22:00:00 6,8 5,4 5,1 5,1 6,9 9,9 18 10 29 15 S 1010,9 13 0 0,0
10.11.2019 21:00:00 6,5 5,7 5,0 5,8 6,9 9,9 16 8 32 18 S 1011,0 6 0 0,5
10.11.2019 20:00:00 6,7 5,8 6,0 6,1 6,9 9,9 25 13 36 19 S 1010,9 4,4 0 0,5
10.11.2019 19:00:00 6,4 4,9 5,7 6,1 7,0 9,9 22 12 34 19 SSE 1011,3 7 0 0,7
10.11.2019 18:00:00 6,4 5,0 5,7 6,3 7,0 9,9 17 9 29 16 SSE 1011,6 8 0 0,2
10.11.2019 17:00:00 6,8 4,5 6,1 6,5 7,0 9,9 15 8 23 12 S 1011,8 11 0 0,0
10.11.2019 16:00:00 7,0 4,5 6,5 7,0 6,9 9,9 11 6 21 12 SSE 1011,8 13 0 0,0
10.11.2019 15:00:00 6,8 4,2 6,7 7,7 6,7 10,0 11 6 17 9 SSE 1011,7 11 13 0,0
10.11.2019 14:00:00 6,2 4,0 5,8 7,9 6,5 10,0 13 7 19 11 SSE 1011,7 10 37 0,0
10.11.2019 13:00:00 6,4 4,0 7,8 7,2 6,4 10,0 10 6 16 8 SSE 1012,1 9 1 0,0
10.11.2019 12:00:00 5,2 4,1 5,4 6,1 6,3 10,0 9 5 16 9 SE 1012,2 5 0 0,1
10.11.2019 11:00:00 4,8 3,1 5,2 5,5 6,2 10,0 7 4 19 10 SE 1012,2 7 27 0,0
10.11.2019 10:00:00 5,0 3,3 5,6 4,9 6,2 10,0 9 5 13 7 SSE 1011,6 6 26 0,0
10.11.2019 09:00:00 2,9 2,5 2,3 3,8 6,3 10,0 9 5 12 7 E 1011,0 3,1 0 0,0
10.11.2019 08:00:00 3,4 2,8 3,1 4,5 6,3 10,0 9 5 13 7 E 1010,5 3,6 0 0,0
10.11.2019 07:00:00 3,5 3,1 3,4 4,5 6,4 10,0 8 4 15 8 E 1009,9 3,3 0 0,0
10.11.2019 06:00:00 3,4 3,0 3,4 4,6 6,4 10,0 12 6 15 8 E 1009,5 2,5 0 0,0
10.11.2019 05:00:00 3,6 3,0 3,6 4,8 6,5 10,0 13 7 16 9 E 1009,1 3,4 0 0,0
10.11.2019 04:00:00 3,8 3,2 3,7 5,0 6,5 10,0 10 5 16 9 E 1008,7 2,5 0 0,0
10.11.2019 03:00:00 4,6 3,8 4,5 5,2 6,5 10,0 11 6 15 8 ESE 1008,5 3,2 0 0,0
10.11.2019 02:00:00 4,8 4,2 4,7 5,3 6,6 10,1 11 6 19 11 ESE 1008,0 2,9 0 0,0
10.11.2019 01:00:00 5,1 4,5 4,9 5,4 6,6 10,1 13 7 17 9 E 1007,9 2,7 0 0,0
10.11.2019 00:00:00 4,8 4,3 4,7 5,3 6,6 10,1 10 6 15 8 E 1007,6 2,2 0 0,0
09.11.2019 23:00:00 4,7 4,2 4,7 5,3 6,6 10,1 10 5 12 6 E 1007,3 2,6 0 0,0
09.11.2019 22:00:00 4,5 4,3 4,4 5,2 6,7 10,1 7 4 12 6 E 1007,2 2,5 0 0,0
09.11.2019 21:00:00 4,2 4,0 4,0 5,3 6,7 10,1 6 4 10 5 E 1007,2 0,3 0 0,0
09.11.2019 20:00:00 4,2 4,1 3,7 5,4 6,8 10,1 5 3 19 10 SE 1007,1 0,9 0 0,0
09.11.2019 19:00:00 4,6 4,6 4,7 5,8 6,8 10,1 10 5 20 11 S 1007,2 1,9 0 0,0
09.11.2019 18:00:00 4,7 4,7 4,7 6,1 6,8 10,1 6 3 13 7 S 1007,0 0,1 0 0,0
09.11.2019 17:00:00 4,5 4,5 4,6 6,8 6,8 10,1 5 3 14 8 S 1006,6 0,1 0 0,0
09.11.2019 16:00:00 5,1 5,0 5,5 7,8 6,6 10,1 10 5 15 8 SSW 1006,4 0,8 26 0,0
09.11.2019 15:00:00 8,3 5,3 8,6 9,2 6,2 10,1 5 3 11 6 SSW 1006,0 17 56 0,0
09.11.2019 14:00:00 8,8 4,9 10,6 9,5 5,8 10,1 7 4 12 6 S 1006,1 20 49 0,0
09.11.2019 13:00:00 7,3 5,1 9,1 8,4 5,4 10,1 8 4 11 6 E 1006,3 13 56 0,0
09.11.2019 12:00:00 5,6 5,2 6,6 5,5 5,2 10,2 6 3 8 5 E 1006,8 7 16 0,0
09.11.2019 11:00:00 3,5 3,2 4,3 4,0 5,1 10,2 5 3 6 4 ESE 1007,0 4,2 0 0,0
09.11.2019 10:00:00 1,6 1,5 1,6 2,3 5,1 10,2 4 2 11 6 E 1007,2 2,6 0 0,0
09.11.2019 09:00:00 0,6 0,4 -0,1 1,4 5,2 10,2 5 3 8 5 E 1007,3 3,0 0 0,0
09.11.2019 08:00:00 0,2 0,0 -1,5 1,3 5,3 10,2 3 2 7 4 ENE 1007,2 0,6 0 0,0
09.11.2019 07:00:00 0,6 0,6 -0,1 1,5 5,4 10,2 6 4 10 6 E 1007,2 0,2 0 0,0
09.11.2019 06:00:00 0,6 0,6 -1,2 1,5 5,5 10,2 4 2 11 6 ENE 1007,3 0,3 0 0,0
09.11.2019 05:00:00 0,3 0,3 -0,5 1,5 5,7 10,2 8 4 10 5 E 1007,7 0,1 0 0,0
09.11.2019 04:00:00 0,8 0,7 -0,6 1,6 5,8 10,2 7 4 9 5 E 1007,4 0,2 0 0,0
09.11.2019 03:00:00 1,8 1,7 -0,1 2,1 6,0 10,2 5 3 9 5 ENE 1007,8 0,2 0 0,0
09.11.2019 02:00:00 1,7 1,7 0,7 2,2 6,1 10,2 9 5 11 6 E 1008,1 0,4 0 0,0
09.11.2019 01:00:00 1,7 1,5 0,6 2,4 6,3 10,2 6 4 8 4 E 1008,0 0,2 0 0,0
09.11.2019 00:00:00 1,2 1,1 -0,1 2,3 6,5 10,2 9 5 10 6 E 1008,3 0,2 0 0,0
08.11.2019 23:00:00 1,2 0,9 -0,6 2,4 6,8 10,2 6 3 8 5 E 1008,4 0,3 0 0,0
08.11.2019 22:00:00 1,3 1,0 -1,0 2,6 7,0 10,2 5 3 10 5 ENE 1008,7 0,2 0 0,0
08.11.2019 21:00:00 2,2 1,9 -0,2 3,0 7,3 10,2 7 4 10 6 E 1008,7 1,9 0 0,0
08.11.2019 20:00:00 3,5 3,4 0,8 3,5 7,6 10,3 6 3 9 5 E 1008,4 3,2 0 0,0
08.11.2019 19:00:00 3,8 3,6 0,3 4,3 7,9 10,3 5 3 7 4 SE 1008,2 0,5 0 0,0
08.11.2019 18:00:00 5,1 4,3 0,9 5,5 8,1 10,3 4 2 10 5 ESE 1008,0 11 0 0,0
08.11.2019 17:00:00 7,2 5,1 4,4 6,9 8,2 10,3 8 4 13 7 S 1007,7 26 4 0,0
08.11.2019 16:00:00 8,1 5,7 7,0 8,7 8,2 10,3 10 5 19 10 S 1007,4 21 60 0,0
08.11.2019 15:00:00 9,2 5,8 9,7 10,0 8,0 10,3 14 8 20 11 S 1006,5 15 60 0,0
08.11.2019 14:00:00 9,7 6,4 10,7 10,5 7,7 10,3 13 7 24 13 SSW 1006,5 14 57 0,0
08.11.2019 13:00:00 9,2 6,3 10,0 10,1 7,4 10,3 19 10 26 14 SSW 1006,7 3,7 44 0,0
08.11.2019 12:00:00 8,6 6,4 9,7 9,4 7,2 10,3 14 8 22 12 S 1006,7 10 28 0,0
08.11.2019 11:00:00 8,0 6,4 8,7 7,8 7,0 10,3 13 7 21 11 S 1006,5 13 7 0,0
08.11.2019 10:00:00 7,0 5,7 7,0 6,6 7,0 10,3 15 8 25 14 S 1006,2 8 0 0,0
08.11.2019 09:00:00 6,7 5,4 6,4 6,2 6,9 10,3 16 9 26 14 S 1005,3 15 0 0,0
08.11.2019 08:00:00 6,2 5,1 5,8 5,9 6,9 10,3 12 7 25 13 S 1004,8 8 0 0,0
08.11.2019 07:00:00 6,6 5,2 5,8 5,9 6,9 10,3 15 8 28 15 S 1004,0 12 0 0,0
08.11.2019 06:00:00 6,9 5,7 6,0 5,6 7,0 10,4 18 10 29 16 S 1003,3 10 0 0,0
08.11.2019 05:00:00 6,8 5,6 5,2 5,5 7,0 10,4 19 11 29 16 S 1002,8 9 0 0,0
08.11.2019 04:00:00 6,4 5,3 4,7 6,1 7,0 10,4 12 7 29 16 S 1002,2 7 0 0,0
08.11.2019 03:00:00 8,0 6,9 7,0 6,6 7,0 10,4 11 6 18 10 S 1001,4 8 0 0,0
08.11.2019 02:00:00 7,4 6,8 6,7 6,5 6,9 10,4 9 5 13 7 SSE 1001,0 7 0 0,0
08.11.2019 01:00:00 7,0 6,5 6,6 6,3 6,8 10,4 10 5 19 10 ESE 1000,8 7 0 0,8
08.11.2019 00:00:00 6,7 6,3 6,3 6,1 6,8 10,4 14 8 22 12 E 1000,7 3,2 0 2,5
07.11.2019 23:00:00 6,5 6,0 6,0 5,8 6,8 10,4 16 8 28 15 E 1000,9 3,2 0 1,6
07.11.2019 22:00:00 6,0 5,3 5,5 5,5 6,8 10,4 19 10 26 14 E 1001,1 4,6 0 1,4
07.11.2019 21:00:00 5,6 4,3 5,0 5,2 6,8 10,4 19 11 30 16 E 1001,2 8 0 0,0
07.11.2019 20:00:00 5,3 3,9 4,8 5,2 6,8 10,4 20 11 31 17 E 1001,0 10 0 0,0
07.11.2019 19:00:00 5,3 4,0 4,8 5,1 6,9 10,4 19 11 27 14 ESE 1001,3 10 0 0,0
07.11.2019 18:00:00 4,9 3,7 4,4 5,2 7,0 10,5 17 9 22 12 E 1001,3 12 0 0,0
07.11.2019 17:00:00 4,6 3,6 4,2 5,3 7,0 10,5 11 6 15 8 E 1001,6 10 0 0,0
07.11.2019 16:00:00 4,1 3,2 3,8 5,7 7,0 10,5 11 6 24 13 ENE 1001,5 12 0 0,0
07.11.2019 15:00:00 3,9 3,4 4,4 6,8 6,9 10,5 18 10 26 14 ESE 1001,5 10 0 0,0
07.11.2019 14:00:00 4,3 3,5 5,3 8,5 6,7 10,5 17 9 22 12 ESE 1001,6 8 43 0,0
07.11.2019 13:00:00 5,8 3,7 7,5 7,9 6,4 10,5 18 10 21 11 E 1001,6 5 60 0,0
07.11.2019 12:00:00 5,0 3,9 6,7 7,0 6,1 10,5 12 6 17 9 ESE 1002,0 18 44 0,0
07.11.2019 11:00:00 2,8 2,8 4,2 5,0 6,0 10,5 10 6 14 7 E 1002,1 7 44 0,0
07.11.2019 10:00:00 1,3 1,3 2,4 3,6 6,1 10,5 10 5 12 6 E 1002,1 0,3 12 0,0
07.11.2019 09:00:00 -0,2 -0,2 0,3 2,3 6,2 10,5 8 5 10 5 ENE 1002,1 0,3 0 0,0
07.11.2019 08:00:00 -0,5 -0,5 -0,8 2,3 6,4 10,5 9 5 14 7 E 1001,9 0,4 0 0,0
07.11.2019 07:00:00 0,3 0,3 0,4 3,0 6,5 10,5 9 5 12 7 ENE 1001,8 0,2 0 0,0
07.11.2019 06:00:00 0,8 0,8 0,9 3,2 6,6 10,5 9 5 11 6 ENE 1001,7 0,1 0 0,0
07.11.2019 05:00:00 1,3 1,3 1,5 3,5 6,7 10,5 6 3 10 5 E 1001,8 0,1 0 0,0
07.11.2019 04:00:00 1,7 1,7 1,6 3,8 6,8 10,5 8 4 10 5 E 1001,8 0,1 0 0,0
07.11.2019 03:00:00 2,4 2,4 2,3 4,0 6,9 10,5 6 3 8 4 ESE 1001,9 0,1 0 0,0
07.11.2019 02:00:00 2,3 2,3 2,0 4,0 7,1 10,5 3 2 6 3 ESE 1002,0 0,1 0 0,0
07.11.2019 01:00:00 2,9 2,9 2,6 4,0 7,2 10,5 4 2 8 4 NNE 1001,9 0,1 0 0,0
07.11.2019 00:00:00 2,7 2,6 0,7 4,2 7,3 10,5 4 2 5 3 S 1002,0 0,3 0 0,0
06.11.2019 23:00:00 3,8 3,6 3,4 4,8 7,4 10,5 4 2 7 4 S 1002,1 6 0 0,0
06.11.2019 22:00:00 3,9 3,7 3,5 4,8 7,6 10,6 6 3 8 4 NW 1002,2 3,9 0 0,0
06.11.2019 21:00:00 3,6 3,3 2,7 4,7 7,7 10,6 5 3 8 4 SW 1002,1 1,3 0 0,0
06.11.2019 20:00:00 4,0 3,6 1,3 5,1 7,9 10,6 4 2 8 4 N 1001,9 1,0 0 0,0
06.11.2019 19:00:00 5,0 4,5 4,3 6,2 8,0 10,6 5 3 8 5 WNW 1001,9 9 0 0,0
06.11.2019 18:00:00 5,2 4,4 4,7 6,5 8,0 10,6 0 0 9 5 N 1001,6 15 0 0,0
06.11.2019 17:00:00 5,3 4,8 5,1 6,9 8,0 10,6 8 4 13 7 N 1001,3 17 0 0,1

tt = temperature
td = dewpoint
tt 5cm = temperature 5cm
tt -5cm = temperature -5cm
tt -20cm = temperature -20cm
tt -100cm = temperature -100cm
ff = wind speed
fx = gusts
dd = wind direction
ppp = reduced air pressure
vv = visibility
sd = sunshine duration
rr = precipitation

Next stations